�������l�o���
Date,Time,MP-1(��Sv/h),MP-2(��Sv/h),MP-3(��Sv/h),MP-4(��Sv/h),MP-5(��Sv/h),MP-6(��Sv/h),MP-7(��Sv/h),MP-8(��Sv/h),����,����(m/s),���J
2016/12/12,00:00,1.094,1.852,1.210,2.106,1.444,0.570,1.043,0.967,�k�k��,5.4,��
2016/12/12,00:10,1.098,1.854,1.209,2.104,1.446,0.569,1.041,0.965,�k�k��,4.4,��
2016/12/12,00:20,1.098,1.854,1.209,2.109,1.443,0.571,1.042,0.965,�k��,4.3,��
2016/12/12,00:30,1.098,1.855,1.213,2.106,1.445,0.570,1.041,0.964,�k��,3.7,��
2016/12/12,00:40,1.095,1.852,1.210,2.103,1.445,0.572,1.041,0.965,�k�k��,4.3,��
2016/12/12,00:50,1.098,1.850,1.210,2.104,1.448,0.571,1.042,0.968,�k�k��,3.5,��
2016/12/12,01:00,1.097,1.852,1.212,2.106,1.445,0.572,1.041,0.967,�k,3.1,��
2016/12/12,01:10,1.099,1.851,1.213,2.107,1.444,0.571,1.040,0.966,�k�k��,2.3,��
2016/12/12,01:20,1.099,1.851,1.213,2.106,1.442,0.571,1.040,0.966,�k��,4.6,��
2016/12/12,01:30,1.098,1.852,1.211,2.105,1.446,0.572,1.040,0.966,�k�k��,4.8,��
2016/12/12,01:40,1.097,1.851,1.211,2.107,1.443,0.571,1.044,0.965,�k�k��,4.4,��
2016/12/12,01:50,1.097,1.849,1.213,2.103,1.443,0.571,1.040,0.965,�k�k��,5.0,��
2016/12/12,02:00,1.097,1.854,1.213,2.105,1.446,0.571,1.040,0.968,�k�k��,5.0,��
2016/12/12,02:10,1.098,1.850,1.211,2.105,1.443,0.570,1.040,0.967,�k�k��,4.6,��
2016/12/12,02:20,1.099,1.853,1.211,2.104,1.441,0.571,1.041,0.966,�k��,2.9,��
2016/12/12,02:30,1.100,1.854,1.211,2.104,1.444,0.572,1.042,0.966,�k�k��,3.0,��
2016/12/12,02:40,1.097,1.853,1.210,2.103,1.447,0.572,1.041,0.965,�k,2.0,��
2016/12/12,02:50,1.098,1.849,1.209,2.103,1.442,0.570,1.040,0.966,�k,0.9,��
2016/12/12,03:00,1.098,1.850,1.208,2.101,1.444,0.572,1.040,0.965,�k��,1.2,��
2016/12/12,03:10,1.097,1.851,1.209,2.103,1.445,0.570,1.038,0.964,�k��,1.5,��
2016/12/12,03:20,1.097,1.849,1.211,2.103,1.442,0.572,1.040,0.967,-,CALM,��
2016/12/12,03:30,1.099,1.849,1.207,2.100,1.443,0.570,1.039,0.965,-,CALM,��
2016/12/12,03:40,1.095,1.850,1.211,2.101,1.442,0.570,1.039,0.965,���쐼,0.6,��
2016/12/12,03:50,1.095,1.852,1.210,2.102,1.443,0.570,1.038,0.963,���쐼,1.2,��
2016/12/12,04:00,1.095,1.849,1.211,2.102,1.441,0.571,1.039,0.966,��,2.3,��
2016/12/12,04:10,1.096,1.852,1.211,2.105,1.442,0.571,1.039,0.964,�k��,6.6,��
2016/12/12,04:20,1.097,1.851,1.211,2.106,1.442,0.570,1.040,0.964,��,4.5,��
2016/12/12,04:30,1.096,1.852,1.211,2.103,1.444,0.570,1.038,0.963,��,4.2,��
2016/12/12,04:40,1.097,1.852,1.211,2.105,1.445,0.572,1.040,0.968,��,3.9,��
2016/12/12,04:50,1.098,1.849,1.212,2.104,1.438,0.570,1.039,0.965,�쐼,2.6,��
2016/12/12,05:00,1.098,1.849,1.213,2.103,1.442,0.569,1.040,0.967,�쐼,3.7,��
2016/12/12,05:10,1.096,1.849,1.210,2.102,1.442,0.570,1.040,0.965,���쐼,3.2,��
2016/12/12,05:20,1.097,1.844,1.209,2.100,1.442,0.570,1.039,0.965,���쐼,2.6,��
2016/12/12,05:30,1.097,1.850,1.209,2.099,1.443,0.569,1.041,0.964,���쐼,3.1,��
2016/12/12,05:40,1.095,1.848,1.207,2.102,1.443,0.569,1.039,0.966,�쐼,3.4,��
2016/12/12,05:50,1.094,1.848,1.207,2.103,1.439,0.567,1.038,0.964,�쐼,3.0,��
2016/12/12,06:00,1.095,1.847,1.210,2.102,1.442,0.570,1.039,0.964,��쐼,3.9,��
2016/12/12,06:10,1.094,1.851,1.206,2.098,1.440,0.569,1.039,0.964,��쐼,3.5,��
2016/12/12,06:20,1.096,1.851,1.206,2.102,1.439,0.570,1.040,0.966,��,3.3,��
2016/12/12,06:30,1.097,1.849,1.208,2.103,1.441,0.568,1.039,0.965,��,3.6,��
2016/12/12,06:40,1.096,1.846,1.207,2.100,1.442,0.568,1.039,0.965,��,3.3,��
2016/12/12,06:50,1.098,1.848,1.208,2.099,1.441,0.569,1.039,0.963,��쐼,3.3,��
2016/12/12,07:00,1.093,1.850,1.205,2.104,1.441,0.568,1.037,0.965,�쐼,3.6,��
2016/12/12,07:10,1.095,1.850,1.206,2.102,1.440,0.569,1.037,0.963,�쐼,4.0,��
2016/12/12,07:20,1.095,1.846,1.205,2.101,1.441,0.569,1.039,0.965,�쐼,4.6,��
2016/12/12,07:30,1.096,1.851,1.206,2.104,1.441,0.569,1.039,0.966,�쐼,4.2,��
2016/12/12,07:40,1.096,1.846,1.206,2.105,1.443,0.569,1.039,0.964,�쐼,4.6,��
2016/12/12,07:50,1.097,1.846,1.207,2.104,1.440,0.569,1.039,0.963,�쐼,4.5,��
2016/12/12,08:00,1.096,1.847,1.208,2.103,1.442,0.571,1.041,0.965,��쐼,5.1,��
2016/12/12,08:10,1.095,1.847,1.207,2.106,1.438,0.570,1.039,0.967,��쐼,6.0,��
2016/12/12,08:20,1.097,1.848,1.207,2.102,1.439,0.570,1.042,0.967,��쐼,5.3,��
2016/12/12,08:30,1.098,1.848,1.208,2.106,1.440,0.570,1.041,0.964,��쐼,4.5,��
2016/12/12,08:40,1.098,1.848,1.209,2.106,1.442,0.571,1.040,0.965,��쐼,4.4,��
2016/12/12,08:50,1.097,1.850,1.207,2.105,1.442,0.571,1.042,0.965,��쐼,3.4,��
2016/12/12,09:00,1.100,1.850,1.207,2.102,1.441,0.570,1.044,0.965,��쐼,2.6,��
2016/12/12,09:10,1.098,1.853,1.211,2.108,1.446,0.571,1.041,0.968,��쐼,2.6,��
2016/12/12,09:20,1.097,1.852,1.210,2.108,1.444,0.571,1.040,0.965,�쐼,3.4,��
2016/12/12,09:30,1.098,1.850,1.211,2.109,1.443,0.571,1.043,0.965,�쐼,2.6,��
2016/12/12,09:40,1.097,1.849,1.212,2.105,1.443,0.571,1.044,0.964,���쐼,3.4,��
2016/12/12,09:50,1.099,1.850,1.211,2.107,1.445,0.571,1.043,0.965,��쐼,2.6,��
2016/12/12,10:00,1.103,1.855,1.208,2.109,1.443,0.572,1.040,0.966,�쐼,4.3,��
2016/12/12,10:10,1.098,1.853,1.210,2.110,1.445,0.571,1.041,0.965,���쐼,4.4,��
2016/12/12,10:20,1.103,1.857,1.209,2.108,1.445,0.573,1.042,0.967,���쐼,4.5,��
2016/12/12,10:30,1.103,1.855,1.202,2.108,1.434,0.574,1.042,0.967,��,4.9,��
2016/12/12,10:40,1.103,1.854,1.209,2.108,1.435,0.572,1.040,0.966,��,5.0,��
2016/12/12,10:50,1.103,1.840,1.210,2.112,-,0.572,1.043,0.968,��,5.3,��
2016/12/12,11:00,1.104,1.838,1.209,2.106,1.442,0.572,1.042,0.967,��,6.9,��
2016/12/12,11:10,1.106,1.851,1.211,2.112,1.444,0.573,1.042,0.967,��,5.1,��
2016/12/12,11:20,1.103,1.851,1.211,2.112,1.445,0.573,1.043,0.967,��,4.9,��
2016/12/12,11:30,1.107,1.855,1.211,2.113,1.444,0.574,1.044,0.969,��,4.9,��
2016/12/12,11:40,1.106,1.853,1.208,2.112,1.449,0.572,1.044,0.967,���쐼,7.5,��
2016/12/12,11:50,1.106,1.855,1.207,2.112,1.443,0.572,1.044,0.968,���쐼,6.6,��
2016/12/12,12:00,1.106,1.848,1.206,2.113,1.446,0.573,1.045,0.969,��,6.2,��
2016/12/12,12:10,1.106,1.849,1.214,2.112,1.444,0.573,1.045,0.969,��,6.0,��
2016/12/12,12:20,1.107,1.855,1.212,2.111,1.443,0.574,1.046,0.970,��,5.0,��
2016/12/12,12:30,1.107,1.857,1.215,2.114,1.446,0.575,1.045,0.968,���k��,5.7,��
2016/12/12,12:40,1.106,1.853,1.211,2.111,-,0.576,1.047,0.968,���k��,7.7,��
2016/12/12,12:50,1.108,1.851,1.211,2.115,-,0.574,1.046,0.968,���k��,6.3,��
2016/12/12,13:00,1.107,1.851,1.215,2.110,-,0.574,1.047,0.968,��,6.2,��
2016/12/12,13:10,1.109,1.851,1.214,2.115,-,0.577,1.046,0.969,��,6.1,��
2016/12/12,13:20,1.109,1.853,1.215,2.112,1.442,0.575,1.047,0.967,��,5.8,��
2016/12/12,13:30,1.108,1.848,1.216,2.114,1.444,0.575,1.047,0.966,��,5.2,��
2016/12/12,13:40,1.110,1.850,1.215,2.117,1.449,0.575,1.049,0.965,��,4.2,��
2016/12/12,13:50,1.108,1.850,1.218,2.115,1.451,0.575,1.047,0.968,��,3.5,��
2016/12/12,14:00,1.110,1.848,1.216,2.116,1.451,0.575,1.048,0.969,��,4.7,��
2016/12/12,14:10,1.108,1.847,1.216,2.116,1.450,0.576,1.044,0.968,���쐼,4.8,��
2016/12/12,14:20,1.109,1.850,1.217,2.117,1.451,0.575,1.046,0.968,��,4.3,��
2016/12/12,14:30,1.107,1.851,1.218,2.111,1.452,0.577,1.046,0.967,���쐼,4.8,��
2016/12/12,14:40,1.110,1.855,1.218,2.115,1.455,0.574,1.047,0.968,���쐼,3.9,��
2016/12/12,14:50,1.106,1.854,1.216,2.115,1.452,0.575,1.046,0.968,��,3.9,��
2016/12/12,15:00,1.111,1.853,1.218,2.116,1.452,0.572,1.046,0.969,��,2.9,��
2016/12/12,15:10,1.110,1.852,1.218,2.114,1.452,-,1.046,0.966,���쐼,2.6,��
2016/12/12,15:20,1.109,1.853,1.216,2.115,1.453,0.572,1.047,0.969,���k��,4.2,��
2016/12/12,15:30,1.109,1.856,1.218,2.115,1.454,0.572,1.045,0.968,���k��,5.0,��
2016/12/12,15:40,1.107,1.856,1.215,2.115,1.454,0.572,1.045,0.968,���k��,5.4,��
2016/12/12,15:50,1.106,1.854,1.215,2.114,1.453,0.572,1.042,0.969,���k��,5.1,��
2016/12/12,16:00,1.106,1.854,1.218,2.110,1.455,0.572,1.046,0.967,���k��,4.8,��
2016/12/12,16:10,1.108,1.853,1.217,2.112,1.454,-,1.045,0.968,��,4.4,��
2016/12/12,16:20,1.108,1.856,1.215,2.113,1.451,0.571,1.045,0.970,�쐼,2.3,��
2016/12/12,16:30,1.108,1.855,1.216,2.112,1.453,0.574,1.045,0.967,��,1.1,��
2016/12/12,16:40,1.109,1.856,1.216,2.111,1.455,0.575,1.043,0.968,�쐼,1.7,��
2016/12/12,16:50,1.106,1.854,1.216,2.111,1.455,0.573,1.044,0.968,���쐼,2.0,��
2016/12/12,17:00,1.104,1.856,1.213,2.111,1.452,0.575,1.044,0.968,��,2.3,��
2016/12/12,17:10,1.104,1.853,1.215,2.110,1.453,0.575,1.044,0.969,��,3.7,��
2016/12/12,17:20,1.108,1.851,1.217,2.108,1.451,0.574,1.042,0.967,��,3.6,��
2016/12/12,17:30,1.103,1.854,1.216,2.109,1.452,0.573,1.044,0.966,��,3.5,��
2016/12/12,17:40,1.104,1.856,1.213,2.110,1.450,0.572,1.042,0.968,���k��,3.6,��
2016/12/12,17:50,1.105,1.853,1.213,2.113,1.455,0.573,1.043,0.967,���k��,2.9,��
2016/12/12,18:00,1.107,1.854,1.214,2.111,1.451,0.572,1.043,0.966,���k��,1.4,��
2016/12/12,18:10,1.103,1.850,1.215,2.107,1.454,0.571,1.044,0.968,���k��,2.6,��
2016/12/12,18:20,1.103,1.852,1.213,2.108,1.452,0.572,1.042,0.966,���k��,2.3,��
2016/12/12,18:30,1.103,1.853,1.213,2.108,1.450,0.572,1.040,0.965,���k��,2.8,��
2016/12/12,18:40,1.105,1.855,1.213,2.104,1.451,0.572,1.041,0.967,���k��,2.6,��
2016/12/12,18:50,1.105,1.853,1.213,2.106,1.451,0.574,1.042,0.966,���k��,2.3,��
2016/12/12,19:00,1.102,1.851,1.212,2.108,1.447,0.571,1.043,0.966,���k��,2.2,��
2016/12/12,19:10,1.103,1.854,1.213,2.108,1.450,0.570,1.041,0.967,���k��,2.6,��
2016/12/12,19:20,1.103,1.855,1.212,2.107,1.452,0.572,1.041,0.964,�k��,2.8,��
2016/12/12,19:30,1.105,1.851,1.212,2.111,1.452,0.570,1.040,0.965,�k,2.6,��
2016/12/12,19:40,1.104,1.854,1.213,2.106,1.451,0.572,1.041,0.964,�k�k��,2.5,��
2016/12/12,19:50,1.103,1.852,1.214,2.108,1.450,0.572,1.043,0.967,�k��,1.7,��
2016/12/12,20:00,1.104,1.854,1.213,2.110,1.449,0.571,1.042,0.966,�k�k��,0.9,��
2016/12/12,20:10,1.103,1.855,1.214,2.109,1.453,0.571,1.041,0.966,-,CALM,��
2016/12/12,20:20,1.102,1.852,1.212,2.107,1.447,0.572,1.040,0.967,-,CALM,��
2016/12/12,20:30,1.103,1.850,1.213,2.109,1.451,0.571,1.042,0.967,���쐼,0.9,��
2016/12/12,20:40,1.104,1.851,1.214,2.109,1.451,0.572,1.039,0.963,-,CALM,��
2016/12/12,20:50,1.104,1.853,1.214,2.109,1.451,0.572,1.042,0.965,�쐼,0.9,��
2016/12/12,21:00,1.105,1.848,1.212,2.109,1.449,0.571,1.042,0.965,�쐼,1.2,��
2016/12/12,21:10,1.103,1.854,1.211,2.109,1.450,0.572,1.040,0.967,���쐼,1.2,��
2016/12/12,21:20,1.105,1.851,1.213,2.105,1.451,0.572,1.042,0.966,���쐼,1.5,��
2016/12/12,21:30,1.105,1.853,1.212,2.107,1.449,0.572,1.042,0.967,���쐼,1.9,��
2016/12/12,21:40,1.103,1.851,1.212,2.107,1.448,0.571,1.042,0.967,��,1.7,��
2016/12/12,21:50,1.103,1.853,1.213,2.106,1.450,0.573,1.043,0.966,��,1.2,��
2016/12/12,22:00,1.105,1.851,1.213,2.104,1.450,0.571,1.041,0.966,��,1.5,��
2016/12/12,22:10,1.105,1.854,1.215,2.108,1.448,0.572,1.043,0.966,���쐼,1.4,��
2016/12/12,22:20,1.103,1.852,1.212,2.109,1.451,0.573,1.042,0.966,�쐼,1.5,��
2016/12/12,22:30,1.103,1.852,1.215,2.107,1.451,0.571,1.043,0.967,���쐼,1.9,��
2016/12/12,22:40,1.104,1.853,1.214,2.111,1.448,0.572,1.042,0.966,�쐼,1.9,��
2016/12/12,22:50,1.103,1.852,1.214,2.109,1.449,0.572,1.043,0.965,�쐼,2.3,��
2016/12/12,23:00,1.103,1.855,1.212,2.108,1.452,0.570,1.044,0.966,���쐼,2.3,��
2016/12/12,23:10,1.103,1.855,1.213,2.110,1.449,0.571,1.042,0.966,���쐼,2.6,��
2016/12/12,23:20,1.104,1.854,1.214,2.108,1.451,0.571,1.041,0.966,�쐼,3.6,��
2016/12/12,23:30,1.103,1.851,1.214,2.109,1.449,0.571,1.040,0.966,��쐼,3.9,��
2016/12/12,23:40,1.106,1.855,1.214,2.109,1.453,0.571,1.042,0.966,��쐼,4.4,��
2016/12/12,23:50,1.104,1.854,1.214,2.111,1.451,0.571,1.041,0.967,��쐼,3.9,��
